Location: Treviso
(45.6669°N, 12.2430°E)
Time: 11:37:55
(UTC+02:00)

OTV 5 (USA 277) - Visible Passes

Search period start: 18 October 2019 00:00
Search period end: 27 October 2019 23:00
Orbit: 310 x 324 km, 54.5° (Epoch: 08 October)

Date Brightness Start Highest point End Pass type
(mag) Time Alt. Az. Time Alt. Az. Time Alt. Az.
18 Oct ? 05:05:07 14° ENE 05:05:07 14° ENE 05:05:47 10° ENE visible
18 Oct ? 06:36:01 16° WNW 06:38:05 58° SW 06:40:45 10° SE visible
19 Oct ? 05:19:36 22° E 05:19:36 22° E 05:20:53 10° E visible
19 Oct ? 06:50:31 12° W 06:52:29 22° SW 06:54:42 10° S visible
20 Oct ? 05:34:13 27° ESE 05:34:13 27° ESE 05:35:39 10° SE visible
21 Oct ? 05:48:58 18° SSE 05:48:58 18° SSE 05:49:57 10° SSE visible
